Regional Weather Roundup
Issued by NWS

Home | Current Version | Previous Version | Text Only | Print | Product List | Glossary On
Versions: 1 2 3 4 5 6 7 8 9 10 11 12 13 14 15 16 17 18 19 20 21 22 23 24 25 26 27 28 29 30 31 32 33 34 35 36 37 38 39 40 41 42 43 44 45 46 47
592
ASUS42 KTBW 220712
RWRFL
FLORIDA REGIONAL WEATHER ROUNDUP
NATIONAL WEATHER SERVICE TAMPA BAY RUSKIN FL
200 AM EST THU FEB 22 2018

NOTE: "FAIR" INDICATES FEW OR NO CLOUDS BELOW 12,000 FEET WITH NO
SIGNIFICANT WEATHER AND/OR OBSTRUCTIONS TO VISIBILITY.

FLZ001>010-012>015-112-114-115-220800-
PANHANDLE FLORIDA

CITY           SKY/WX    TMP DP  RH WIND       PRES   REMARKS
PENSACOLA      CLOUDY    71  69  93 SE6       30.33S
MILTON NAS     MOCLDY    69  68  96 S7        30.33
CRESTVIEW      FAIR      63  62  97 CALM      30.34S FOG
DUKE FIELD     FOG       64  64 100 CALM      30.32F VSB 5/8
VALPARAISO     FOG       69  69 100 SE5       30.32S VSB 7/8
MARY ESTHER    FOG       68  68 100 SE3       30.31  VSB 5/8
PANAMA CITY    FAIR      65  64  97 CALM      30.33F
TYNDALL AFB    FAIR      67  67 100 NE3       30.35S
APALACHICOLA   MOCLDY    67  67 100 E7        30.35R

STATION/POSITION SKY/WX   TEMP    WIND        PRES    WAVE   SWELL
                          AIR SEA DIR/SP/G            HT/PER HT/PER
                          (F)     (DEG/KT/KT) (MB)    (FT/S) (FT/S)
29.2N   88.2W                 74  130/ 10/ 14 1026.1R   6/ 8   5/ 8
28.8N   86.0W              73 72  140/  6/  6 1026.2S   4/ 7   3/ 7
PANAMA CITY BEAC           69 68   70/  7/  8 1027.7F
TOWER C                    67     100/ 13/ 13 1028.1R

$$
FLZ011-016>038-118-127-128-134-139-239-220800-
NORTH FLORIDA

CITY           SKY/WX    TMP DP  RH WIND       PRES   REMARKS
MARIANNA       FAIR      65  63  93 E3        30.35S
TALLAHASSEE    MOCLDY    61  60  97 CALM      30.37S
PERRY          FAIR      68  64  86 CALM      30.38S
LIVE OAK       MOCLDY    68  68 100 CALM      30.40
CROSS CITY     FAIR      67  67  97 CALM      30.42S
LAKE CITY      FAIR      64  64 100 E3        30.39F
GAINESVILLE    FAIR      67  65  93 E6        30.41S
MAYPORT NAS    CLOUDY    69  66  90 SE8       30.41S
JACKSONVILLE   FAIR      68  66  93 SE7       30.40S
JAX NAS        FAIR      70  69  97 SE6       30.41S
JAX CECIL      MOCLDY    68  68 100 CALM      30.40S
FERNANDINA BEA FAIR      70  66  88 SE7       30.40S
ST AUGUSTINE   FAIR      66  65  96 SE5       30.41F
PALM COAST     FAIR      67  65  94 SE3       30.40S

STATION/POSITION SKY/WX   TEMP    WIND        PRES    WAVE   SWELL
                          AIR SEA DIR/SP/G            HT/PER HT/PER
                          (F)     (DEG/KT/KT) (MB)    (FT/S) (FT/S)
SHELL POINT                69      40/  3/  5 1027.8
KEATON BEACH               69      70/  6/  7 1028.6R
CEDAR KEY        NOT AVBL
FERNANDINA                 69 61  140/  4/  7 1030.6F
30.7N   81.3W                 63                N/A     3/ 6   2/13
MAYPORT                    69 60  160/  3/  5 1029.9S
31.4N   80.9W              62 58  140/  6/  6 1029.7F   3/ 7   3/ 7
ST AUGUSTINE               68 66  120/  7/  7 1029.6F

$$
FLZ040-043>046-052-053-057-058-063-144-220800-
INTERIOR CENTRAL FLORIDA

CITY           SKY/WX    TMP DP  RH WIND       PRES   REMARKS
OCALA          FAIR      68  67  96 VRB3      30.39
LEESBURG       FAIR      71  68  90 E9        30.38F
SANFORD        FAIR      66  64  93 E7        30.38F
ORLANDO EXEC   FAIR      68  66  93 E7        30.38F
ORLANDO INTL   FAIR      67  66  97 E6        30.38F
KISSIMMEE      FAIR      69  66  90 E8        30.38F
WINTER HAVEN   FAIR      69  67  93 E7        30.38F
LAKELAND       CLEAR     70  66  88 E7        30.37F
SEBRING        PTSUNNY   66  63  90 CALM      30.36S
OKEECHOBEE     FAIR      64  63  94 NE3       30.36S

$$
FLZ041-047-054-059-064-141-147-220800-
EAST CENTRAL FLORIDA

CITY           SKY/WX    TMP DP  RH WIND       PRES   REMARKS
DAYTONA BEACH  FAIR      70  67  90 E3        30.39F
DELAND         FAIR      64  63  94 E5        30.39F
JFK SPACE CTR  FAIR      70  70 100 E5        30.37F
CAPE CANAVERAL FAIR      71  66  84 E6        30.37F
PATRICK AFB    FAIR      72  70  93 E8          N/A
MELBOURNE      MOCLDY    74  67  78 E7        30.37F
VERO BEACH     CLOUDY    73  68  84 SE14      30.36F
FT PIERCE      CLOUDY    73  67  81 E8        30.36S
STUART         FAIR      73  66  78 E12       30.36F

STATION/POSITION SKY/WX   TEMP    WIND        PRES    WAVE   SWELL
                          AIR SEA DIR/SP/G            HT/PER HT/PER
                          (F)     (DEG/KT/KT) (MB)    (FT/S) (FT/S)
28.5N   80.2W              74 73  100/ 12/ 16 1028.6F   5/ 8   3/ 8
TRIDENT PIER               71 73   60/  5/  7 1030.0F
28.4N   80.5W                 72                N/A     4/ 5   2/12
27.5N   80.2W                 75                N/A     5/ 6   2/13

$$
FLZ050-056-061-142-242-148-248-149-249-151-251-155-255-
160-260-220800-
WEST CENTRAL FLORIDA

CITY           SKY/WX    TMP DP  RH WIND       PRES   REMARKS
CRYSTAL RIVER  FAIR      68  64  88 CALM      30.37S
INVERNESS      FAIR      66  66 100 CALM      30.38S
BROOKSVILLE    FAIR      69  65  86 E6        30.37S
CLEARWATER AIR FAIR      70  64  83 E10       30.35F
ST PETE CLEARW FAIR      72  67  84 E14       30.34F
TAMPA INTL     FAIR      72  66  81 E7G16     30.36S
TAMPA EXEC     FAIR      70  64  83 E5        30.37S
PLANT CITY     FAIR      70  66  88 E6        30.38F
MACDILL AFB    FAIR      69  66  88 SE12      30.34F
PETER O KNIGHT CLOUDY   N/A N/A N/A E10       30.36S
ST PETERSBURG  FAIR      72  67  84 SE17      30.33F
SARASOTA       FAIR      69  66  90 E12       30.32F
VENICE         FAIR      70  68  94 E8        30.34S

STATION/POSITION SKY/WX   TEMP    WIND        PRES    WAVE   SWELL
                          AIR SEA DIR/SP/G            HT/PER HT/PER
                          (F)     (DEG/KT/KT) (MB)    (FT/S) (FT/S)
27.3N   84.2W                 73                N/A     3/ 7
CLEARWATER BEACH                  100/ 10/ 13   N/A
MIDDLE TAMPA BAY           70     110/ 12/ 13 1027.6F
VENICE                     69 74   70/  5/  9 1027.2F

$$
FLZ066-069-070-075>078-162-262-165-265-220800-
SOUTHWEST FLORIDA AND KEYS

CITY           SKY/WX    TMP DP  RH WIND       PRES   REMARKS
PUNTA GORDA    MOCLDY    67  64  90 E7        30.35F
FT MYERS       FAIR      69  67  93 NE7       30.32F
SOUTHWEST INTL FAIR      67  67 100 NE6       30.33F
NAPLES         FAIR      68  67  96 NE7       30.31F
MARCO ISLAND   FAIR      67  65  93 NE7       30.32F
IMMOKALEE      CLOUDY    64  64 100 NE5       30.34F
MARATHON       MOCLDY    76  68  76 E14G21    30.27F
KEY WEST NAS   FAIR      75  73  93 E20G26    30.27F
KEY WEST INTL  FAIR      76  70  82 E14       30.27F

STATION/POSITION SKY/WX   TEMP    WIND        PRES    WAVE   SWELL
                          AIR SEA DIR/SP/G            HT/PER HT/PER
                          (F)     (DEG/KT/KT) (MB)    (FT/S) (FT/S)
NAPLES                        74   70/  5/  8 1026.4F
DRY TORTUGAS               75      90/ 19/ 21 1024.4F
SAND KEY                   77                 1025.2F
MOLASSES REEF              76 77  100/ 20/ 22 1025.4F

$$
FLZ067-068-071>074-168-172>174-220800-
SOUTHEAST FLORIDA

CITY           SKY/WX    TMP DP  RH WIND       PRES   REMARKS
W PALM BEACH   FAIR      74  67  78 E15       30.34S
FT LAUDER-EXEC MOCLDY    75  69  81 E14       30.32S
FT LAUDERDALE  MOCLDY    75  70  84 E18       30.31S
POMPANO BEACH  MOCLDY    76  69  79 E13       30.32S
PEMBROKE PINES MOCLDY    76  68  76 E13       30.33F
OPA LOCKA      FAIR      75  68  78 E12       30.32F
MIAMI          MOCLDY    75  68  78 E14       30.31F
WEST KENDALL   FAIR      74  67  78 E14       30.30F
HOMESTEAD      FAIR      75  68  80 E13       30.29F

STATION/POSITION SKY/WX   TEMP    WIND        PRES    WAVE   SWELL
                          AIR SEA DIR/SP/G            HT/PER HT/PER
                          (F)     (DEG/KT/KT) (MB)    (FT/S) (FT/S)
PORT EVERGLADES            76      90/ 13/ 17 1026.5F
VIRGINIA KEY                       80/ 16/ 20   N/A
LAKE WORTH                 75 76  110/ 16/ 18 1028.2S
FOWEY ROCKS                76 76   90/ 23/ 25 1026.6F
SETTLEMENT POINT           73      90/ 13/ 14 1027.6F

$$





USA.gov is the U.S. government's official web portal to all federal, state and local government web resources and services.